Weather History for Colorado City, AZ

Change the Weather History Date:

Tuesday, September 24, 2013

  Actual Average (KCDC) Record (KCDC)
Temperature  
Mean Temperature 61 °F 58 °F  
Max Temperature 83 °F 75 °F 88 °F (2001)
Min Temperature 39 °F 41 °F 27 °F (2006)
Degree Days  
Heating Degree Days 4 7  
Month to date heating degree days 85  
Since 1 July heating degree days 94  
Cooling Degree Days 0 0  
Month to date cooling degree days 36  
Year to date cooling degree days 585  
Growing Degree Days 11 (Base 50)    
Moisture  
Dew Point 35 °F    
Average Humidity 47    
Maximum Humidity 88    
Minimum Humidity 14    
Precipitation  
Precipitation 0.00 in 0.02 in 2.09 in (1967)
Month to date precipitation 0.51  
Year to date precipitation 8.05  
Sea Level Pressure  
Sea Level Pressure 30.08 in    
Wind  
Wind Speed 6 mph (SSE)    
Max Wind Speed 16 mph    
Max Gust Speed 22 mph    
Visibility 10 miles    
Events      
T = Trace of Precipitation, MM = Missing Value Source: NWS Daily Summary

Daily Weather History Graph

Daily Weather History Graph

Search for Another Location

Airport:

Trip Planner

Search our weather history database for the weather conditions in past years. The results will help you decide how hot, cold, wet, or windy it might be!

Date:

Astronomy

Sep. 24, 2013 Rise Set
Actual Time 6:21 AM MST 6:25 PM MST
Civil Twilight 5:55 AM MST 6:51 PM MST
Nautical Twilight 5:25 AM MST 7:21 PM MST
Astronomical Twilight 4:55 AM MST 7:51 PM MST
Moon 9:53 PM MST (9/24) 11:32 AM MST (9/24)
Length of Visible Light 12h 55m
Length of Day
12h 03m
Waning Gibbous, 72% of the Moon is Illuminated
Sep 24
Waning Gibbous
Sep 26
Last Quarter
Oct 4
New
Oct 11
First Quarter
Oct 18
Full

Hourly Weather History & Observations

Time (MST) Temp. Windchill Dew Point Humidity Pressure Visibility Wind Dir Wind Speed Gust Speed Precip Events Conditions
12:35 AM 42.6 °F 40.9 °F 36.0 °F 77% 30.15 in 10.0 mi SE 3.5 mph - N/A   Clear
12:55 AM 42.8 °F 39.3 °F 36.0 °F 77% 30.16 in 10.0 mi SSE 5.8 mph - N/A   Clear
1:15 AM 40.8 °F 36.9 °F 35.8 °F 82% 30.15 in 10.0 mi SE 5.8 mph - N/A   Clear
1:35 AM 40.8 °F 36.9 °F 36.0 °F 83% 30.16 in 10.0 mi SSE 5.8 mph - N/A   Clear
1:55 AM 41.4 °F 37.6 °F 36.0 °F 81% 30.16 in 10.0 mi SE 5.8 mph - N/A   Clear
2:35 AM 41.5 °F 37.8 °F 35.6 °F 79% 30.15 in 10.0 mi ESE 5.8 mph - N/A   Clear
2:55 AM 42.1 °F 38.4 °F 36.1 °F 79% 30.15 in 10.0 mi SE 5.8 mph - N/A   Clear
3:15 AM 40.6 °F 36.0 °F 35.8 °F 83% 30.15 in 10.0 mi SE 6.9 mph - N/A   Clear
3:35 AM 39.9 °F 34.5 °F 36.1 °F 86% 30.15 in 10.0 mi SE 8.1 mph - N/A   Clear
3:55 AM 40.8 °F 36.9 °F 36.1 °F 83% 30.15 in 10.0 mi SE 5.8 mph - N/A   Clear
4:15 AM 40.8 °F 36.9 °F 36.0 °F 83% 30.15 in 10.0 mi SSE 5.8 mph - N/A   Clear
4:35 AM 42.4 °F 38.8 °F 36.0 °F 78% 30.15 in 10.0 mi SSE 5.8 mph - N/A   Clear
4:55 AM 41.0 °F 36.4 °F 35.8 °F 82% 30.15 in 10.0 mi ESE 6.9 mph - N/A   Clear
5:15 AM 39.9 °F 35.8 °F 35.6 °F 85% 30.16 in 10.0 mi SE 5.8 mph - N/A   Clear
5:35 AM 39.4 °F 34.5 °F 35.6 °F 86% 30.16 in 10.0 mi SE 6.9 mph - N/A   Clear
5:55 AM 39.2 °F 33.0 °F 35.8 °F 88% 30.16 in 10.0 mi SE 9.2 mph - N/A   Clear
6:15 AM 40.8 °F 35.6 °F 36.3 °F 84% 30.17 in 10.0 mi SE 8.1 mph - N/A   Clear
6:35 AM 41.2 °F 37.3 °F 36.0 °F 82% 30.17 in 10.0 mi SE 5.8 mph - N/A   Clear
6:55 AM 42.8 °F 39.3 °F 36.5 °F 78% 30.17 in 10.0 mi SE 5.8 mph - N/A   Clear
7:15 AM 46.2 °F 44.1 °F 37.9 °F 73% 30.17 in 10.0 mi SE 4.6 mph - N/A   Clear
7:35 AM 50.7 °F - 39.0 °F 64% 30.17 in 10.0 mi SE 4.6 mph - N/A   Clear
7:55 AM 55.4 °F - 39.9 °F 56% 30.17 in 10.0 mi SSE 6.9 mph - N/A   Clear
8:15 AM 59.2 °F - 39.4 °F 48% 30.17 in 10.0 mi SSE 6.9 mph - N/A   Clear
8:35 AM 62.2 °F - 38.8 °F 42% 30.17 in 10.0 mi SE 6.9 mph - N/A   Clear
8:55 AM 64.4 °F - 38.5 °F 38% 30.17 in 10.0 mi SSE 6.9 mph - N/A   Clear
9:15 AM 66.4 °F - 38.7 °F 36% 30.18 in 10.0 mi SE 5.8 mph - N/A   Clear
9:35 AM 69.1 °F - 39.0 °F 33% 30.17 in 10.0 mi SSE 10.4 mph - N/A   Clear
9:55 AM 72.7 °F - 37.4 °F 28% 30.17 in 10.0 mi SE 10.4 mph - N/A   Clear
10:15 AM 74.3 °F - 35.8 °F 25% 30.17 in 10.0 mi SE 13.8 mph - N/A   Clear
10:55 AM 76.5 °F - 34.5 °F 22% 30.15 in 10.0 mi SSE 10.4 mph 16.1 mph N/A   Clear
11:15 AM 77.2 °F - 34.3 °F 21% 30.15 in 10.0 mi SSE 9.2 mph - N/A   Clear
11:35 AM 78.3 °F - 34.3 °F 20% 30.13 in 10.0 mi SSE 5.8 mph - N/A   Clear
11:55 AM 78.8 °F - 34.3 °F 20% 30.13 in 10.0 mi ESE 4.6 mph - N/A   Clear
12:15 PM 79.9 °F - 34.7 °F 20% 30.12 in 10.0 mi SE 6.9 mph - N/A   Clear
12:35 PM 81.0 °F - 34.0 °F 18% 30.11 in 10.0 mi SW 5.8 mph - N/A   Clear
12:55 PM 81.5 °F - 32.7 °F 17% 30.09 in 10.0 mi SSW 8.1 mph - N/A   Clear
1:15 PM 82.2 °F - 30.4 °F 15% 30.08 in 10.0 mi SSW 10.4 mph 19.6 mph N/A   Clear
1:35 PM 82.4 °F - 29.7 °F 15% 30.07 in 10.0 mi SSW 10.4 mph 20.7 mph N/A   Clear
1:55 PM 82.9 °F - 29.7 °F 14% 30.06 in 10.0 mi SSW 8.1 mph 19.6 mph N/A   Clear
2:15 PM 82.9 °F - 29.7 °F 14% 30.05 in 10.0 mi SSW 12.7 mph 21.9 mph N/A   Clear
2:35 PM 83.5 °F - 30.0 °F 14% 30.04 in 10.0 mi South 12.7 mph 21.9 mph N/A   Clear
2:55 PM 83.5 °F - 29.7 °F 14% 30.03 in 10.0 mi SSW 10.4 mph 17.3 mph N/A   Clear
3:15 PM 83.3 °F - 29.7 °F 14% 30.03 in 10.0 mi SW 16.1 mph 19.6 mph N/A   Clear
3:35 PM 83.1 °F - 29.5 °F 14% 30.02 in 10.0 mi SSW 13.8 mph 17.3 mph N/A   Clear
3:55 PM 82.9 °F - 29.8 °F 15% 30.01 in 10.0 mi SSW 12.7 mph 20.7 mph N/A   Clear
4:15 PM 82.9 °F - 30.4 °F 15% 30.00 in 10.0 mi SW 6.9 mph - N/A   Clear
4:35 PM 82.0 °F - 30.4 °F 15% 30.00 in 10.0 mi SW 9.2 mph - N/A   Clear
4:55 PM 81.3 °F - 30.4 °F 16% 30.00 in 10.0 mi SW 10.4 mph - N/A   Clear
5:15 PM 80.8 °F - 30.7 °F 16% 29.99 in 10.0 mi SSW 5.8 mph - N/A   Clear
5:35 PM 80.1 °F - 30.9 °F 17% 29.98 in 10.0 mi SW 6.9 mph - N/A   Clear
5:55 PM 78.6 °F - 31.6 °F 18% 29.98 in 10.0 mi West 3.5 mph - N/A   Clear
6:15 PM 75.7 °F - 32.5 °F 21% 29.98 in 10.0 mi WSW 3.5 mph - N/A   Clear
6:35 PM 72.1 °F - 32.9 °F 24% 29.97 in 10.0 mi West 4.6 mph - N/A   Clear
6:55 PM 67.1 °F - 33.4 °F 29% 29.97 in 10.0 mi West 4.6 mph - N/A   Clear
7:15 PM 63.0 °F - 34.3 °F 34% 29.97 in 10.0 mi East 3.5 mph - N/A   Clear
7:35 PM 58.8 °F - 36.0 °F 42% 29.98 in 10.0 mi Calm Calm - N/A   Clear
7:55 PM 57.7 °F - 36.5 °F 45% 29.98 in 10.0 mi ESE 4.6 mph - N/A   Clear
8:15 PM 59.0 °F - 36.5 °F 43% 29.99 in 10.0 mi ESE 5.8 mph - N/A   Clear
8:35 PM 54.0 °F - 37.2 °F 53% 29.99 in 10.0 mi SE 5.8 mph - N/A   Clear
8:55 PM 53.4 °F - 36.5 °F 53% 29.98 in 10.0 mi SE 5.8 mph - N/A   Clear
9:15 PM 54.1 °F - 35.6 °F 50% 29.99 in 10.0 mi Calm Calm - N/A   Clear
9:35 PM 54.5 °F - 34.9 °F 48% 29.99 in 10.0 mi Calm Calm - N/A   Clear
9:55 PM 54.1 °F - 35.6 °F 50% 29.99 in 10.0 mi Calm Calm - N/A   Clear
10:15 PM 52.2 °F - 36.0 °F 54% 30.00 in 10.0 mi Calm Calm - N/A   Clear
10:35 PM 49.8 °F - 36.3 °F 60% 29.99 in 10.0 mi ESE 3.5 mph - N/A   Clear
10:55 PM 47.7 °F - 36.3 °F 65% 29.98 in 10.0 mi Calm Calm - N/A   Clear
11:15 PM 47.8 °F - 36.5 °F 65% 29.97 in 10.0 mi East 3.5 mph - N/A   Clear
11:35 PM 49.1 °F - 36.3 °F 61% 29.96 in 10.0 mi Calm Calm - N/A   Clear
11:55 PM 47.8 °F - 36.0 °F 63% 29.96 in 10.0 mi Calm Calm - N/A   Clear